When you browse on this site, cookies collect data to enhance your experience and personalize the content and advertising you see.
Visit our Privacy Policy to learn more. By continuing to use the site, you agree to this use of cookies and data.
  • In Hungary
  • List of Countries
  • For 7 days
  • Water Temperature
  • Weather Map
  • News
  • Weather Widgets
  • user-avatar
    Login

    Hourly Weather Voznicy

    Today, 21 January, Tuesday

    Time Temperature Precipitation Wind Pressure Humidity
    00:00 -1°C° 0.1 mm 5 mps 749 mmHg 85%
    01:00 -1°C° 0.1 mm 5 mps 748 mmHg 87%
    02:00 -2°C° 0 mm 6 mps 747 mmHg 91%
    03:00 -2°C° 0.2 mm 6 mps 746 mmHg 92%
    04:00 -2°C° 0.2 mm 6 mps 745 mmHg 94%
    05:00 -1°C° 0.2 mm 6 mps 744 mmHg 95%
    06:00 -1°C° 0.1 mm 6 mps 743 mmHg 93%
    07:00 -1°C° 0.1 mm 6 mps 743 mmHg 90%
    08:00 -1°C° 0 mm 6 mps 742 mmHg 85%
    09:00 +1°C° 0.1 mm 6 mps 741 mmHg 86%
    10:00 +1°C° 0.1 mm 6 mps 741 mmHg 88%
    11:00 0°C° 0.1 mm 7 mps 740 mmHg 89%
    12:00 +1°C° 0.1 mm 6 mps 740 mmHg 89%
    13:00 +2°C° 0.1 mm 6 mps 739 mmHg 89%
    14:00 +2°C° 0.1 mm 6 mps 738 mmHg 89%
    15:00 +2°C° 0.3 mm 6 mps 737 mmHg 90%
    16:00 +2°C° 0.3 mm 6 mps 736 mmHg 91%
    17:00 +2°C° 0.3 mm 6 mps 735 mmHg 92%
    18:00 +2°C° 0.4 mm 6 mps 736 mmHg 90%
    19:00 +2°C° 0.4 mm 6 mps 736 mmHg 87%
    20:00 0°C° 0.4 mm 7 mps 736 mmHg 84%
    21:00 -1°C° 0 mm 6 mps 736 mmHg 82%
    22:00 -2°C° 0 mm 6 mps 736 mmHg 80%
    23:00 -3°C° 0 mm 6 mps 736 mmHg 79%

    Tomorrow, 22 January, Wednesday

    Time Temperature Precipitation Wind Pressure Humidity
    00:00 -2°C° 0 mm 5 mps 737 mmHg 79%
    01:00 -2°C° 0 mm 5 mps 737 mmHg 80%
    02:00 -2°C° 0 mm 4 mps 737 mmHg 81%
    03:00 -2°C° 0 mm 4 mps 736 mmHg 81%
    04:00 -2°C° 0 mm 5 mps 735 mmHg 81%
    05:00 -2°C° 0 mm 5 mps 734 mmHg 81%
    06:00 -4°C° 0 mm 5 mps 734 mmHg 84%
    07:00 -4°C° 0 mm 5 mps 733 mmHg 86%
    08:00 -4°C° 0 mm 5 mps 733 mmHg 89%
    09:00 -2°C° 0.1 mm 5 mps 733 mmHg 85%
    10:00 -2°C° 0.1 mm 5 mps 732 mmHg 82%
    11:00 -2°C° 0.1 mm 5 mps 732 mmHg 79%
    12:00 -2°C° 0.2 mm 5 mps 732 mmHg 77%
    13:00 -2°C° 0.2 mm 5 mps 732 mmHg 74%
    14:00 -2°C° 0.2 mm 5 mps 732 mmHg 71%
    15:00 -4°C° 0 mm 5 mps 732 mmHg 74%
    16:00 -3°C° 0 mm 4 mps 732 mmHg 76%
    17:00 -4°C° 0 mm 4 mps 733 mmHg 78%
    18:00 -4°C° 0 mm 4 mps 733 mmHg 78%
    19:00 -5°C° 0 mm 5 mps 734 mmHg 78%
    20:00 -5°C° 0 mm 5 mps 734 mmHg 78%
    21:00 -5°C° 0 mm 5 mps 735 mmHg 79%
    22:00 -6°C° 0 mm 5 mps 735 mmHg 80%
    23:00 -6°C° 0 mm 6 mps 735 mmHg 81%

    Day after tomorrow, 23 January, Thursday

    Time Temperature Precipitation Wind Pressure Humidity
    00:00 -6°C° 0 mm 6 mps 736 mmHg 79%
    01:00 -6°C° 0 mm 6 mps 737 mmHg 76%
    02:00 -8°C° 0 mm 6 mps 737 mmHg 74%
    03:00 -8°C° 0 mm 6 mps 738 mmHg 73%
    04:00 -8°C° 0 mm 6 mps 738 mmHg 72%
    05:00 -9°C° 0 mm 6 mps 739 mmHg 71%
    06:00 -9°C° 0 mm 6 mps 739 mmHg 68%
    07:00 -9°C° 0 mm 6 mps 740 mmHg 66%
    08:00 -9°C° 0 mm 6 mps 741 mmHg 63%
    09:00 -9°C° 0 mm 6 mps 741 mmHg 63%
    10:00 -8°C° 0 mm 6 mps 741 mmHg 62%
    11:00 -8°C° 0 mm 6 mps 742 mmHg 61%
    12:00 -8°C° 0 mm 6 mps 742 mmHg 60%
    13:00 -6°C° 0 mm 6 mps 742 mmHg 58%
    14:00 -6°C° 0 mm 6 mps 742 mmHg 57%
    15:00 -6°C° 0 mm 6 mps 742 mmHg 60%
    16:00 -8°C° 0 mm 6 mps 743 mmHg 64%
    17:00 -8°C° 0 mm 6 mps 743 mmHg 68%
    18:00 -7°C° 0 mm 5 mps 744 mmHg 68%
    19:00 -8°C° 0 mm 4 mps 744 mmHg 68%
    20:00 -7°C° 0 mm 3 mps 745 mmHg 68%
    21:00 -7°C° 0 mm 3 mps 745 mmHg 68%
    22:00 -7°C° 0 mm 3 mps 745 mmHg 68%
    23:00 -8°C° 0 mm 3 mps 745 mmHg 68%

    24 January, Friday

    Time Temperature Precipitation Wind Pressure Humidity
    00:00 -7°C° 0 mm 3 mps 745 mmHg 72%
    01:00 -7°C° 0 mm 3 mps 745 mmHg 75%
    02:00 -6°C° 0 mm 3 mps 745 mmHg 79%
    03:00 -6°C° 0 mm 3 mps 744 mmHg 82%
    04:00 -6°C° 0 mm 3 mps 744 mmHg 86%
    05:00 -5°C° 0 mm 4 mps 743 mmHg 90%
    06:00 -5°C° 0.1 mm 4 mps 743 mmHg 91%
    07:00 -6°C° 0.1 mm 5 mps 742 mmHg 92%
    08:00 -5°C° 0.1 mm 5 mps 742 mmHg 93%
    09:00 -5°C° 0.1 mm 5 mps 741 mmHg 91%
    10:00 -4°C° 0.1 mm 5 mps 741 mmHg 89%
    11:00 -2°C° 0.1 mm 4 mps 741 mmHg 87%
    12:00 -2°C° 0.1 mm 5 mps 740 mmHg 88%
    13:00 -1°C° 0.1 mm 5 mps 740 mmHg 89%
    14:00 -1°C° 0.1 mm 5 mps 740 mmHg 91%
    15:00 0°C° 0 mm 5 mps 740 mmHg 90%
    16:00 0°C° 0 mm 5 mps 740 mmHg 90%
    17:00 0°C° 0 mm 5 mps 740 mmHg 90%
    18:00 0°C° 0 mm 4 mps 740 mmHg 91%
    19:00 0°C° 0 mm 4 mps 740 mmHg 92%
    20:00 +1°C° 0 mm 3 mps 740 mmHg 94%
    21:00 +1°C° 0.4 mm 3 mps 740 mmHg 95%
    22:00 +1°C° 0.4 mm 3 mps 740 mmHg 96%
    23:00 +2°C° 0.4 mm 2 mps 740 mmHg 98%

    25 January, Saturday

    Time Temperature Precipitation Wind Pressure Humidity
    00:00 +2°C° 0.1 mm 2 mps 740 mmHg 98%
    01:00 +2°C° 0.1 mm 2 mps 740 mmHg 98%
    02:00 +2°C° 0.1 mm 2 mps 740 mmHg 98%
    03:00 +2°C° 0.1 mm 2 mps 740 mmHg 98%
    04:00 +2°C° 0.1 mm 2 mps 741 mmHg 98%
    05:00 +2°C° 0.1 mm 2 mps 741 mmHg 97%
    06:00 +2°C° 0.1 mm 2 mps 741 mmHg 97%
    07:00 +2°C° 0.1 mm 2 mps 741 mmHg 97%
    08:00 +2°C° 0.1 mm 2 mps 741 mmHg 97%
    09:00 +2°C° 0.1 mm 2 mps 741 mmHg 97%
    10:00 +1°C° 0.1 mm 3 mps 741 mmHg 97%
    11:00 +1°C° 0.1 mm 3 mps 741 mmHg 96%
    12:00 +2°C° 0.1 mm 3 mps 741 mmHg 96%
    13:00 +2°C° 0.1 mm 3 mps 741 mmHg 96%
    14:00 +2°C° 0.1 mm 3 mps 741 mmHg 96%
    15:00 +1°C° 0.1 mm 3 mps 741 mmHg 96%
    16:00 +1°C° 0.1 mm 3 mps 741 mmHg 96%
    17:00 +1°C° 0.1 mm 3 mps 741 mmHg 96%
    18:00 +1°C° 0.1 mm 3 mps 741 mmHg 96%
    19:00 +1°C° 0.1 mm 3 mps 741 mmHg 96%
    20:00 +2°C° 0.1 mm 2 mps 742 mmHg 96%
    21:00 +1°C° 0 mm 2 mps 742 mmHg 95%
    22:00 +1°C° 0 mm 2 mps 742 mmHg 94%
    23:00 +1°C° 0 mm 2 mps 742 mmHg 94%

    26 January, Sunday

    Time Temperature Precipitation Wind Pressure Humidity
    00:00 +1°C° 0 mm 2 mps 742 mmHg 94%
    01:00 +1°C° 0 mm 2 mps 742 mmHg 94%
    02:00 0°C° 0 mm 3 mps 742 mmHg 94%
    03:00 -1°C° 0 mm 3 mps 743 mmHg 93%
    04:00 -1°C° 0 mm 3 mps 743 mmHg 92%
    05:00 -1°C° 0 mm 3 mps 743 mmHg 91%
    06:00 -1°C° 0 mm 3 mps 743 mmHg 92%
    07:00 -1°C° 0 mm 2 mps 743 mmHg 92%
    08:00 -2°C° 0 mm 2 mps 743 mmHg 93%
    09:00 -1°C° 0 mm 2 mps 743 mmHg 91%
    10:00 0°C° 0 mm 3 mps 744 mmHg 89%
    11:00 +1°C° 0 mm 3 mps 744 mmHg 87%
    12:00 +1°C° 0 mm 3 mps 744 mmHg 87%
    13:00 +1°C° 0 mm 3 mps 743 mmHg 87%
    14:00 +2°C° 0 mm 2 mps 743 mmHg 86%
    15:00 +2°C° 0 mm 2 mps 743 mmHg 89%
    16:00 +1°C° 0 mm 2 mps 743 mmHg 92%
    17:00 +1°C° 0 mm 2 mps 743 mmHg 95%
    18:00 +1°C° 0 mm 2 mps 743 mmHg 96%
    19:00 +1°C° 0 mm 2 mps 743 mmHg 97%
    20:00 +1°C° 0 mm 2 mps 743 mmHg 97%
    21:00 +1°C° 0 mm 2 mps 743 mmHg 97%
    22:00 +1°C° 0 mm 2 mps 743 mmHg 96%
    23:00 +1°C° 0 mm 2 mps 743 mmHg 95%
    Show more